Location: Bottenau
(48.5138°N, 8.0462°E)
Time: 21:03:25
(UTC+00:00)

SPOT 1/Viking Rocket - Pass Details

Date: 18 April 2021
Orbit: 776 x 794 km, 98.4° (Epoch: 17 May)

Event Time Altitude Azimuth Distance (km) Brightness Sun altitude
Exits shadow 19:58:13 22° 137° (SE) 1,685 4.7 -14.7°
Maximum altitude 20:01:27 53° 69° (ENE) 975 3.8 -15.1°
Drops below altitude 10° 20:06:32 10° 354° (N) 2,374 6.7 -15.8°
Sets 20:08:55 0° 350° (N) 3,307 7.6 -16.1°
